Eagle River, WI

12:08 PM CDT on July 28, 2016 (GMT -0500)
Eagle River Union

Weather History for KEGV - August, 2012

Change the Weather History Date:

Saturday, August 11, 2012

  Actual Average Record
Temperature  
Mean Temperature 56 °F -  
Max Temperature 69 °F 76 °F 87 °F (2007)
Min Temperature 42 °F 50 °F 39 °F (1997)
Degree Days  
Heating Degree Days 10    
Growing Degree Days 6 (Base 50)    
Moisture  
Dew Point 47 °F    
Average Humidity 82    
Maximum Humidity 100    
Minimum Humidity 43    
Precipitation  
Precipitation 0.00 in - - ()
Sea Level Pressure  
Sea Level Pressure 30.06 in    
Wind  
Wind Speed 5 mph (North)    
Max Wind Speed 14 mph    
Max Gust Speed 20 mph    
Visibility 10 miles    
Events      
Averages and records for this station are not official NWS values.
T = Trace of Precipitation, MM = Missing Value Source: NWS Daily Summary

Daily Weather History Graph

Daily Weather History Graph

Search for Another Location

Airport or City:

Trip Planner

Search our weather history database for the weather conditions in past years. The results will help you decide how hot, cold, wet, or windy it might be!

Date:

Astronomy

Aug. 11, 2012 Rise Set
Actual Time 5:52 AM CDT 8:11 PM CDT
Civil Twilight 5:19 AM CDT 8:43 PM CDT
Nautical Twilight 4:38 AM CDT 9:24 PM CDT
Astronomical Twilight 3:51 AM CDT 10:10 PM CDT
Moon 12:15 AM CDT (8/11) 3:51 PM CDT (8/11)
Length of Visible Light 15h 24m
Length of Day
14h 18m
Waning Crescent, 32% of the Moon is Illuminated
Aug 11
Waning Crescent
Aug 17
New
Aug 24
First Quarter
Aug 31
Full
Sep 8
Last Quarter

Hourly Weather History & Observations

Time (CDT) Temp. Windchill Dew Point Humidity Pressure Visibility Wind Dir Wind Speed Gust Speed Precip Events Conditions
12:35 AM 44.6 °F 43.1 °F 44.6 °F 100% 30.08 in 10.0 mi North 3.5 mph - N/A   Clear
12:55 AM 46.4 °F 43.5 °F 44.6 °F 93% 30.08 in 10.0 mi North 5.8 mph - N/A   Clear
1:15 AM 46.4 °F 43.5 °F 44.6 °F 93% 30.07 in 10.0 mi North 5.8 mph - N/A   Clear
1:35 AM 46.4 °F 43.5 °F 44.6 °F 93% 30.07 in 10.0 mi NNW 5.8 mph - N/A   Clear
1:55 AM 46.4 °F 45.2 °F 44.6 °F 93% 30.07 in 10.0 mi North 3.5 mph - N/A   Clear
2:15 AM 44.6 °F - 42.8 °F 93% 30.06 in 10.0 mi Calm Calm - N/A   Clear
2:35 AM 44.6 °F 43.1 °F 44.6 °F 100% 30.06 in 10.0 mi North 3.5 mph - N/A   Clear
2:55 AM 42.8 °F 41.1 °F 42.8 °F 100% 30.07 in 10.0 mi NNW 3.5 mph - N/A   Clear
3:15 AM 42.8 °F 40.1 °F 42.8 °F 100% 30.07 in 10.0 mi North 4.6 mph - N/A   Clear
3:35 AM 42.8 °F 40.1 °F 42.8 °F 100% 30.07 in 10.0 mi NNW 4.6 mph - N/A   Clear
3:55 AM 42.8 °F 39.3 °F 42.8 °F 100% 30.08 in 10.0 mi North 5.8 mph - N/A   Clear
4:15 AM 44.6 °F 43.1 °F 44.6 °F 100% 30.08 in 10.0 mi North 3.5 mph - N/A   Clear
4:35 AM 44.6 °F - 44.6 °F 100% 30.08 in 10.0 mi Calm Calm - N/A   Clear
4:55 AM 42.8 °F - 42.8 °F 100% 30.08 in 10.0 mi Calm Calm - N/A   Clear
5:15 AM 42.8 °F 41.1 °F 42.8 °F 100% 30.08 in 10.0 mi North 3.5 mph - N/A   Clear
5:35 AM 44.6 °F 42.2 °F 44.6 °F 100% 30.08 in 10.0 mi North 4.6 mph - N/A   Clear
5:55 AM 46.4 °F 43.5 °F 46.4 °F 100% 30.09 in 10.0 mi North 5.8 mph - N/A   Clear
6:35 AM 48.2 °F - 48.2 °F 100% 30.08 in 10.0 mi NNE 5.8 mph - N/A   Clear
6:55 AM 50.0 °F - 50.0 °F 100% 30.08 in 10.0 mi NNE 3.5 mph - N/A   Clear
7:15 AM 50.0 °F - 50.0 °F 100% 30.09 in 10.0 mi NNE 3.5 mph - N/A   Clear
7:35 AM 51.8 °F - 51.8 °F 100% 30.09 in 10.0 mi North 3.5 mph - N/A   Clear
7:55 AM 53.6 °F - 53.6 °F 100% 30.09 in 10.0 mi North 3.5 mph - N/A   Clear
8:15 AM 55.4 °F - 53.6 °F 94% 30.09 in 10.0 mi North 6.9 mph - N/A   Clear
8:35 AM 59.0 °F - 53.6 °F 82% 30.09 in 10.0 mi North 6.9 mph - N/A   Clear
8:55 AM 59.0 °F - 51.8 °F 77% 30.08 in 10.0 mi North 10.4 mph - N/A   Clear
9:15 AM 60.8 °F - 50.0 °F 68% 30.09 in 10.0 mi North 9.2 mph 17.3 mph N/A   Clear
9:35 AM 62.6 °F - 50.0 °F 63% 30.08 in 10.0 mi North 8.1 mph 16.1 mph N/A   Scattered Clouds
10:15 AM 64.4 °F - 46.4 °F 52% 30.08 in 10.0 mi NNW 13.8 mph 17.3 mph N/A   Clear
10:35 AM 62.6 °F - 46.4 °F 55% 30.07 in 10.0 mi North 8.1 mph 16.1 mph N/A   Scattered Clouds
10:55 AM 64.4 °F - 46.4 °F 52% 30.08 in 10.0 mi North 11.5 mph - N/A   Mostly Cloudy
11:35 AM 66.2 °F - 46.4 °F 49% 30.07 in 10.0 mi NNE 13.8 mph 19.6 mph N/A   Scattered Clouds
12:15 PM 66.2 °F - 46.4 °F 49% 30.06 in 10.0 mi NNE 9.2 mph 17.3 mph N/A   Scattered Clouds
12:55 PM 68.0 °F - 46.4 °F 46% 30.06 in 10.0 mi North 8.1 mph 16.1 mph N/A   Scattered Clouds
1:35 PM 69.8 °F - 46.4 °F 43% 30.06 in 10.0 mi NNW 9.2 mph - N/A   Mostly Cloudy
2:15 PM 69.8 °F - 46.4 °F 43% 30.04 in 10.0 mi NNE 12.7 mph 16.1 mph N/A   Scattered Clouds
2:35 PM 69.8 °F - 48.2 °F 46% 30.04 in 10.0 mi NNE 8.1 mph - N/A   Scattered Clouds
2:55 PM 69.8 °F - 46.4 °F 43% 30.03 in 10.0 mi ENE 6.9 mph - N/A   Scattered Clouds
3:15 PM 69.8 °F - 48.2 °F 46% 30.02 in 10.0 mi ENE 5.8 mph - N/A   Scattered Clouds
3:35 PM 69.8 °F - 46.4 °F 43% 30.01 in 10.0 mi NE 4.6 mph - N/A   Clear
8:15 PM 60.8 °F - 48.2 °F 63% 30.03 in 10.0 mi North 5.8 mph - N/A   Clear
8:35 PM 59.0 °F - 48.2 °F 67% 30.03 in 10.0 mi NNE 4.6 mph - N/A   Clear
8:55 PM 55.4 °F - 46.4 °F 72% 30.03 in 10.0 mi North 4.6 mph - N/A   Clear
9:15 PM 51.8 °F - 46.4 °F 82% 30.03 in 10.0 mi Calm Calm - N/A   Clear
9:35 PM 51.8 °F - 46.4 °F 82% 30.03 in 10.0 mi Calm Calm - N/A   Clear
9:55 PM 50.0 °F - 50.0 °F 100% 30.03 in 10.0 mi Calm Calm - N/A   Clear
10:15 PM 50.0 °F - 48.2 °F 94% 30.03 in 10.0 mi Calm Calm - N/A   Clear
10:35 PM 48.2 °F - 48.2 °F 100% 30.03 in 10.0 mi Calm Calm - N/A   Clear
10:55 PM 48.2 °F - 48.2 °F 100% 30.03 in 10.0 mi Calm Calm - N/A   Clear
11:15 PM 46.4 °F - 46.4 °F 100% 30.03 in 1.5 mi Calm Calm - N/A   Mist
11:35 PM 46.4 °F - 46.4 °F 100% 30.03 in 5.0 mi Calm Calm - N/A   Clear
11:55 PM 44.6 °F - 44.6 °F 100% 30.03 in 4.0 mi Calm Calm - N/A   Clear